TimeADT,TemperatureF,Dew PointF,Humidity,Sea Level PressureIn,VisibilityMPH,Wind Direction,Wind SpeedMPH,Gust SpeedMPH,PrecipitationIn,Events,Conditions,WindDirDegrees,DateUTC
12:00 AM,48.7,-9999,N/A,30.29,-9999.0,West,10.4,-,N/A,,Unknown,260,2012-10-09 03:00:00
2:00 AM,50.7,-9999,N/A,30.33,-9999.0,WNW,17.3,-,N/A,,Unknown,290,2012-10-09 05:00:00
3:00 AM,50.9,-9999,N/A,30.34,-9999.0,NW,21.9,-,N/A,,Unknown,310,2012-10-09 06:00:00
4:00 AM,50.4,-9999,N/A,30.35,-9999.0,NW,12.7,-,N/A,,Unknown,310,2012-10-09 07:00:00
5:00 AM,50.7,-9999,N/A,30.35,-9999.0,NNW,11.5,-,N/A,,Unknown,330,2012-10-09 08:00:00
6:00 AM,51.3,-9999,N/A,30.39,-9999.0,NNW,13.8,-,N/A,,Unknown,340,2012-10-09 09:00:00
7:00 AM,51.1,-9999,N/A,30.38,-9999.0,North,16.1,-,N/A,,Unknown,350,2012-10-09 10:00:00
8:00 AM,50.7,-9999,N/A,30.43,-9999.0,North,9.2,-,N/A,,Unknown,10,2012-10-09 11:00:00
9:00 AM,51,,,30.43,,NNE,6.9,,,,,30,2012-10-09 12:00:00
9:00 AM,51.1,-9999,N/A,30.43,-9999.0,NNE,6.9,-,N/A,,Unknown,30,2012-10-09 12:00:00
10:00 AM,51.4,-9999,N/A,30.41,-9999.0,NE,10.4,-,N/A,,Unknown,40,2012-10-09 13:00:00
11:00 AM,51.6,-9999,N/A,30.42,-9999.0,ENE,8.1,-,N/A,,Unknown,60,2012-10-09 14:00:00
12:00 PM,52.0,-9999,N/A,30.40,-9999.0,NE,9.2,-,N/A,,Unknown,50,2012-10-09 15:00:00
1:00 PM,52.9,-9999,N/A,30.37,-9999.0,East,9.2,-,N/A,,Unknown,80,2012-10-09 16:00:00
2:00 PM,53.1,-9999,N/A,30.35,-9999.0,ENE,9.2,-,N/A,,Unknown,60,2012-10-09 17:00:00
3:00 PM,53,,,30.35,,NE,11.5,,,,,50,2012-10-09 18:00:00
3:00 PM,52.7,-9999,N/A,30.35,-9999.0,NE,11.5,-,N/A,,Unknown,50,2012-10-09 18:00:00
4:00 PM,53.4,-9999,N/A,30.34,-9999.0,NE,10.4,-,N/A,,Unknown,50,2012-10-09 19:00:00
5:00 PM,54.1,-9999,N/A,30.30,-9999.0,East,10.4,-,N/A,,Unknown,90,2012-10-09 20:00:00
6:00 PM,54.7,-9999,N/A,30.28,-9999.0,East,12.7,-,N/A,,Unknown,80,2012-10-09 21:00:00
7:00 PM,54.0,-9999,N/A,30.27,-9999.0,East,8.1,-,N/A,,Unknown,100,2012-10-09 22:00:00
8:00 PM,52.5,-9999,N/A,30.26,-9999.0,ENE,4.6,-,N/A,,Unknown,60,2012-10-09 23:00:00
9:00 PM,54,,,30.25,,East,8.1,,,,,80,2012-10-10 00:00:00
9:00 PM,54.1,-9999,N/A,30.25,-9999.0,East,8.1,-,N/A,,Unknown,80,2012-10-10 00:00:00
10:00 PM,54.9,-9999,N/A,30.24,-9999.0,East,10.4,-,N/A,,Unknown,80,2012-10-10 01:00:00
11:00 PM,53.6,-9999,N/A,30.23,-9999.0,East,8.1,-,N/A,,Unknown,90,2012-10-10 02:00:00